RH
100 99 99 99 97 95 94 92 92 92 92 91 91 88 96 82 84 88 97 89 85 82 82 84 84 88 78 48 41 51 54 77 89 85 70 77 77 76 81 58 74 81 69 61 64 44 39
94 99 100 100 98 97 96 91 93 94 95 93 90 91 94 91 80 86 94 97 87 85 85 86 85 86 65 61 38 51 54 64 78 86 75 86 73 62 62 46 72 76 86 64 76 62 55
89 96 100 100 99 95 96 91 94 94 94 93 91 91 94 86 76 83 89 95 95 88 88 89 86 78 58 52 40 54 52 68 82 86 82 93 92 94 58 47 62 71 93 93 81 73 79
86 93 100 99 99 97 93 89 95 94 94 95 94 94 90 88 76 80 89 94 95 95 91 90 86 70 62 53 41 54 53 58 77 91 79 88 93 91 80 40 62 85 90 92 91 78 63
81 90 100 98 99 98 92 93 89 94 92 89 89 89 82 93 82 81 86 94 94 96 87 90 82 69 59 55 60 69 62 54 78 88 71 79 89 81 58 66 73 90 98 86 72 75 81
78 90 94 100 100 99 94 87 91 95 94 91 86 85 82 78 79 86 85 80 68 85 67 69 61 69 61 74 86 78 72 63 74 82 81 78 94 90 69 62 84 97 77 81 69 70 83
89 87 98 100 100 100 97 81 81 96 95 94 91 85 80 80 86 87 86 73 64 64 54 53 50 53 68 99 88 76 64 62 82 85 96 88 97 94 67 51 39 81 70 71 63 51 67
99 92 93 100 100 100 98 82 68 97 96 95 90 84 82 87 87 82 86 64 61 65 65 42 46 61 67 75 75 66 66 64 81 98 90 96 90 58 42 41 36 33 50 62 65 54 51
96 100 93 97 100 100 99 83 71 95 97 97 93 91 84 85 83 83 78 51 67 60 72 51 53 60 72 68 61 70 66 67 81 88 96 93 82 50 53 40 40 39 39 68 72 75 57
93 96 99 96 100 100 100 82 72 70 97 95 84 90 90 84 93 70 57 58 68 64 98 63 59 59 64 55 76 67 81 68 84 92 80 87 67 55 70 54 35 43 30 37 47 60 70
89 89 100 99 98 100 100 81 71 62 91 92 93 91 92 88 91 60 71 65 66 68 94 58 57 51 53 62 69 71 60 62 75 78 71 91 74 68 50 39 36 50 41 42 50 54 46
88 93 98 100 97 100 100 83 69 61 78 87 87 82 89 88 84 74 69 67 73 95 89 79 54 60 58 55 60 64 58 54 52 63 84 80 64 80 87 46 41 43 47 47 47 50 80
88 94 97 98 98 99 100 80 64 54 80 85 70 93 89 82 79 76 71 70 98 93 61 74 58 51 53 59 63 63 60 68 73 92 99 84 80 66 62 55 44 44 53 85 85 88 78
99 99 99 98 100 99 100 76 64 56 83 75 82 93 86 82 79 77 76 83 88 69 65 47 51 62 69 55 59 65 57 70 69 77 91 98 96 74 63 55 57 51 50 76 64 79 67
99 100 96 96 100 99 100 89 66 64 75 63 92 87 84 87 83 82 81 82 95 66 46 51 54 69 67 65 67 74 77 57 62 75 76 97 93 70 70 64 60 57 72 45 63 38 75
94 98 99 89 100 100 100 97 89 72 68 66 90 81 79 89 88 81 93 79 77 50 43 45 65 64 62 64 64 81 67 54 58 60 52 56 94 73 73 64 55 62 43 65 84 78 48
98 99 98 99 100 100 100 96 85 78 61 74 81 81 90 92 87 87 84 73 58 48 51 54 50 52 52 61 58 72 64 66 49 59 48 47 62 85 74 76 66 64 60 54 55 60 83
86 73 100 87 100 100 100 94 92 82 54 83 70 95 92 82 96 84 78 62 58 53 50 52 49 49 45 53 60 56 71 67 49 51 54 51 69 74 70 57 58 63 53 50 76 74 65
92 96 99 88 99 100 99 92 91 85 62 80 74 92 92 92 83 76 63 60 56 55 53 49 49 47 45 50 60 62 65 58 50 52 52 47 77 96 86 63 57 69 59 54 48 70 81
95 99 100 87 100 100 98 93 88 74 63 74 72 96 96 94 75 72 63 52 63 55 49 42 45 44 47 51 45 60 70 63 58 53 60 55 59 72 90 64 58 70 58 52 64 99 77
98 99 99 98 100 100 98 97 88 57 75 87 72 81 67 90 78 66 59 50 51 62 54 44 48 50 48 58 54 57 61 71 66 68 58 61 80 74 52 57 62 62 59 55 64 68 78
85 100 100 99 100 100 98 96 90 58 63 91 69 69 66 58 56 66 59 60 47 51 50 52 51 46 44 67 55 60 62 62 72 68 66 61 94 72 84 57 58 67 62 58 56 54 56
92 99 99 99 100 100 98 94 90 67 76 74 58 58 61 62 62 66 61 52 48 55 56 45 42 44 49 63 50 46 45 42 48 70 72 70 80 89 87 58 58 74 61 59 57 52 51
96 99 98 100 100 100 98 95 86 53 55 47 49 53 64 67 62 62 47 52 53 56 59 55 50 50 67 52 43 41 41 43 50 51 48 70 76 89 95 74 91 54 36 41 46 44 46
94 98 100 99 100 100 97 97 79 46 57 52 51 58 52 54 53 54 52 54 58 64 64 63 68 60 56 54 56 63 64 58 54 50 52 53 88 98 97 91 58 45 51 50 50 50 42
94 96 90 97 100 98 99 90 90 58 73 41 52 45 50 51 59 46 53 57 65 67 71 71 57 61 59 63 63 67 80 58 72 68 51 50 53 72 74 82 66 60 47 40 42 74 50
98 96 98 73 100 96 96 91 78 74 90 51 52 36 55 64 64 60 58 62 51 53 66 69 69 75 69 73 82 74 74 47 72 67 78 74 70 84 82 79 68 47 43 42 67 86 56
94 100 100 100 100 96 98 83 79 95 84 50 56 58 58 70 74 60 58 54 53 51 69 63 81 78 85 82 74 67 63 56 47 55 64 68 84 83 78 90 89 44 47 58 64 60 59
91 99 100 100 98 100 92 96 79 59 60 55 68 63 51 72 75 65 66 64 67 63 63 73 84 88 96 95 89 75 61 54 51 64 48 66 59 76 60 71 52 48 64 56 52 54 52
Wind_Speed
24 20 19 17 14 12 13 13 15 15 15 14 16 17 15 17 17 17 15 12 11 12 12 13 15 14 11 6 4 7 10 7 7 3 9 8 11 12 14 15 12 7 11 13 5 19 16
27 27 22 19 17 13 14 14 14 16 15 14 16 17 16 17 19 17 16 13 13 12 12 13 14 12 10 9 5 9 9 3 3 2 3 9 4 11 11 14 14 8 10 14 3 4 3
26 27 27 22 18 17 15 15 14 14 16 14 16 17 17 18 19 18 16 15 13 13 12 13 11 7 10 9 4 4 6 5 3 4 9 5 8 5 8 15 11 9 4 6 4 3 5
31 31 30 24 21 18 16 16 15 13 16 16 15 17 17 17 18 18 17 15 15 14 13 12 9 9 6 2 3 7 6 2 1 5 7 14 10 7 5 6 17 12 9 8 10 9 4
30 31 29 23 23 21 17 16 15 13 14 15 15 17 17 16 18 18 16 16 16 14 12 9 7 9 6 3 3 7 5 6 4 2 3 8 4 4 9 13 8 8 5 3 6 5 3
29 30 23 23 24 23 17 16 14 12 14 15 17 17 17 19 17 17 16 13 11 11 8 8 11 6 5 3 3 10 7 2 2 3 4 4 1 4 6 12 11 5 6 5 8 7 4
30 29 27 27 27 24 19 16 14 12 13 14 16 16 17 18 15 13 14 8 3 4 8 6 8 9 9 4 1 6 4 4 4 2 2 3 2 6 13 12 10 17 6 12 13 10 7
33 31 29 27 33 25 20 17 15 13 13 13 14 15 15 15 14 11 7 4 5 1 6 5 6 5 3 4 2 5 4 5 2 2 7 2 7 10 11 12 4 12 18 9 7 10 10
35 34 32 30 34 30 22 17 15 13 12 12 12 13 15 13 12 6 7 4 1 5 4 3 2 3 1 1 4 6 5 3 2 5 2 4 6 6 4 4 9 5 7 10 7 4 14
41 36 35 31 32 32 24 17 16 13 12 11 12 12 12 10 5 2 3 2 1 3 2 3 1 3 2 3 4 1 12 2 3 6 5 5 1 7 4 10 5 8 5 11 15 9 2
44 40 34 31 27 36 25 18 17 13 11 9 11 12 9 6 7 3 1 2 1 2 1 2 3 1 1 4 8 3 5 3 6 7 1 2 1 6 10 4 5 5 7 7 7 5 5
45 40 36 33 28 37 27 20 17 13 10 8 11 10 2 2 5 2 2 1 2 2 1 1 1 2 4 6 3 4 3 3 6 7 9 4 4 5 6 8 7 4 9 9 5 3 2
42 39 40 41 28 35 30 21 18 13 9 7 7 2 9 4 1 3 2 4 1 2 3 1 3 2 5 4 4 3 6 4 2 4 5 6 4 3 3 7 2 5 8 3 2 1 4
43 37 39 37 35 32 32 24 19 14 10 5 5 9 5 2 4 3 4 1 1 4 4 2 5 4 2 2 4 2 6 4 4 4 3 2 2 3 4 3 2 4 6 4 3 4 5
41 34 38 39 39 32 33 25 21 16 11 7 12 6 3 4 4 1 3 2 3 3 5 8 9 1 2 1 1 2 2 5 5 3 2 4 3 2 3 4 4 4 2 1 2 1 3
44 37 37 36 40 32 33 25 21 17 13 16 10 7 6 5 4 3 1 3 2 3 1 10 2 5 4 6 3 0 4 2 6 5 3 5 5 1 2 3 2 2 3 2 3 1 2
44 38 34 38 33 35 34 27 23 19 16 21 7 3 6 6 3 2 2 2 2 4 3 1 4 5 5 7 5 3 4 2 1 5 2 3 5 3 4 3 6 2 2 2 2 1 1
45 48 36 39 43 37 35 29 25 22 20 21 5 3 9 6 2 2 3 3 2 8 4 2 3 3 5 7 8 5 6 1 5 7 3 4 4 4 2 3 3 5 3 6 3 2 2
42 42 42 44 24 43 36 31 27 26 33 12 4 3 4 4 3 4 4 3 4 6 6 3 3 4 4 6 3 7 5 2 2 6 1 2 2 3 2 2 4 5 6 5 3 3 2
39 43 41 41 39 45 38 33 30 28 28 10 4 4 2 2 4 3 5 6 6 2 2 1 1 2 3 4 0 6 5 2 3 2 5 4 3 1 1 1 3 5 9 8 5 3 4
39 45 40 46 35 44 39 34 32 30 28 8 2 4 6 5 7 9 5 6 9 5 3 4 4 6 4 3 4 5 5 8 3 4 2 4 2 3 2 4 4 1 6 9 9 8 5
46 47 45 54 42 44 39 34 33 31 30 4 4 3 1 4 3 12 8 6 9 6 6 6 3 7 3 3 5 5 11 5 4 4 4 5 2 3 3 1 2 2 6 7 9 10 10
40 45 47 23 45 43 38 35 35 33 31 7 2 2 1 5 6 7 8 7 8 9 1 4 2 3 3 6 4 5 5 2 6 7 6 5 4 2 1 1 3 5 8 11 6 6 6
39 41 42 28 28 39 36 34 36 34 30 3 6 4 2 3 6 8 3 5 8 4 4 4 3 2 1 3 4 3 3 4 6 3 3 3 3 3 1 2 1 4 4 5 3 5 6
41 42 41 36 34 31 35 32 33 31 22 6 9 3 2 4 5 4 7 6 7 3 6 7 5 3 2 3 3 5 2 2 4 3 2 1 3 1 2 2 3 4 1 2 3 4 2
41 44 54 52 29 36 31 31 29 30 27 11 10 4 1 5 3 2 6 8 5 5 4 3 3 3 2 2 1 3 4 4 5 4 2 3 3 1 2 1 3 4 5 3 1 2 5
39 46 59 25 40 36 31 28 25 29 33 14 5 6 2 4 4 6 3 2 3 3 3 4 3 2 3 2 2 3 2 3 5 6 5 2 2 3 4 2 5 7 6 2 1 2 6
38 40 27 35 37 35 31 27 26 31 26 16 8 6 4 4 4 7 6 2 2 2 3 2 3 0 2 2 2 1 2 3 2 4 5 6 5 4 3 3 5 3 4 1 1 6 7
33 36 18 13 29 31 29 26 26 26 26 15 7 13 16 6 5 15 16 13 9 8 1 3 3 4 2 1 1 2 0 2 2 3 3 2 1 2 2 3 2 5 8 6 6 4 4
Wind_Direction
293 286 290 291 290 293 298 303 306 310 319 325 325 326 324 323 324 315 314 307 309 310 315 314 311 308 329 309 357 32 4 21 113 190 182 274 212 206 225 195 175 205 255 245 347 164 157
304 294 279 286 288 285 286 297 299 305 310 322 321 322 324 318 320 320 311 307 303 306 311 315 314 304 285 290 9 17 354 349 129 131 196 296 273 236 221 217 180 134 268 238 298 48 47
307 307 280 275 278 282 279 288 290 300 306 315 317 319 321 315 316 316 306 303 306 304 303 305 311 304 283 267 348 8 344 359 160 134 188 278 354 322 254 220 149 185 299 219 178 51 3
306 309 284 262 279 278 277 282 288 297 303 311 316 317 318 316 315 313 309 299 296 299 297 290 297 298 263 57 306 348 346 259 78 140 180 297 341 285 238 194 162 142 199 232 130 189 25
305 309 303 255 272 274 278 273 282 289 298 308 316 317 316 317 318 310 304 299 289 294 287 269 272 226 284 17 360 350 330 295 119 154 285 309 316 260 218 203 157 173 172 232 93 124 104
304 308 303 260 270 271 271 271 275 280 291 300 309 314 316 320 318 314 305 299 294 282 274 248 254 287 225 304 230 274 276 268 57 87 146 14 229 249 210 177 180 133 217 174 234 158 118
302 302 299 275 267 263 263 271 271 275 285 296 307 311 313 317 318 312 316 319 214 190 235 253 315 304 11 72 293 225 198 158 99 11 80 309 187 220 176 193 166 146 142 157 220 183 137
295 296 296 283 263 261 262 266 267 266 279 291 300 307 315 317 316 305 298 281 66 356 302 224 294 47 50 154 108 161 195 186 168 72 134 139 209 237 168 201 238 190 170 184 10 163 190
299 291 293 291 260 260 258 260 259 259 272 286 296 308 313 316 307 291 247 346 35 344 262 149 59 82 245 320 113 150 208 218 113 140 202 129 142 203 322 185 192 154 186 133 141 209 219
308 295 285 288 265 258 252 251 249 254 262 280 297 298 312 316 301 231 226 148 22 337 285 58 132 103 176 135 51 269 189 176 65 121 59 66 345 183 161 224 231 143 153 143 159 164 183
313 302 287 279 276 253 241 242 241 248 255 274 288 297 303 258 303 239 68 125 334 246 225 16 79 47 30 88 143 344 203 220 133 64 27 69 68 200 172 130 6 68 53 81 121 199 18
309 308 299 272 272 244 233 233 231 238 248 266 285 300 253 184 235 294 149 175 246 253 145 317 107 154 131 124 105 144 188 60 142 58 16 73 41 18 331 36 62 103 84 66 35 5 354
299 303 305 304 259 253 229 226 221 227 232 252 297 210 151 184 353 148 160 232 196 300 255 212 152 128 74 111 88 106 147 144 134 89 3 55 17 106 303 76 72 152 133 88 59 28 214
301 299 306 302 241 250 226 217 212 214 211 225 160 137 151 204 165 158 224 228 191 165 193 163 132 104 75 27 73 50 147 106 51 62 113 83 133 52 327 1 169 195 203 131 190 181 172
300 296 305 311 230 240 217 210 203 198 194 172 148 157 169 174 167 159 250 186 139 187 158 162 152 116 85 296 92 27 312 139 147 222 131 135 93 148 332 342 337 239 27 27 348 219 77
318 298 300 304 231 233 211 201 195 188 180 158 148 170 126 167 170 243 249 290 190 332 117 171 231 184 149 167 164 344 200 105 129 164 210 137 106 284 102 289 266 305 149 74 4 68 233
328 314 308 299 246 222 199 193 191 186 174 162 162 153 141 177 151 224 201 240 222 169 306 275 245 150 144 151 164 216 180 8 178 163 341 273 113 132 110 233 183 173 123 256 164 177 186
326 317 313 306 300 219 188 186 190 181 164 160 188 138 143 166 219 225 220 178 309 157 198 286 297 191 171 147 179 175 176 347 226 145 207 73 92 155 149 22 47 331 229 207 132 236 253
322 318 319 308 257 195 179 182 189 181 168 154 150 116 166 173 204 206 261 221 224 163 197 191 217 320 325 152 130 116 127 328 124 177 104 196 134 109 35 303 191 219 213 234 246 30 203
324 324 320 314 203 188 179 182 189 188 171 169 142 136 139 203 283 263 220 196 177 136 270 187 51 274 210 135 352 142 128 178 158 109 44 10 214 60 108 62 161 189 205 214 173 131 208
329 326 319 310 202 186 178 180 188 188 178 178 215 159 166 177 215 210 248 214 182 158 236 190 193 251 212 153 146 125 111 139 174 113 71 12 320 83 261 16 44 352 196 220 220 212 198
326 324 318 315 203 184 178 181 187 185 181 235 158 147 145 174 149 185 199 222 186 150 166 176 265 184 181 63 27 158 143 172 179 156 172 186 227 81 315 118 319 267 266 258 242 234 237
323 321 319 300 189 178 176 181 187 182 174 197 125 91 209 131 167 182 189 195 193 135 49 41 138 152 184 95 360 345 29 10 131 155 197 167 131 138 219 102 260 281 224 220 228 235 230
321 317 324 332 197 180 176 185 188 187 176 150 174 141 190 162 189 203 175 135 143 128 156 101 302 302 69 262 247 248 79 68 108 43 191 175 139 124 185 289 258 224 61 26 199 225 232
317 315 314 303 305 191 179 187 192 192 176 155 167 148 186 129 172 86 145 142 102 137 93 113 47 32 286 246 151 133 149 164 143 146 210 199 138 199 161 208 270 161 205 140 176 190 107
314 314 306 296 270 186 186 185 194 191 183 166 168 158 29 120 66 333 171 150 160 143 137 100 78 304 250 240 229 174 191 196 157 134 324 308 276 255 190 278 279 131 124 80 97 153 67
315 315 319 230 179 176 184 187 193 190 193 187 176 167 71 101 13 343 101 173 4 98 102 119 135 115 339 161 211 206 178 22 161 180 160 168 242 212 233 240 297 144 138 146 133 189 53
314 312 319 174 168 172 178 183 183 178 173 172 157 146 80 84 34 36 15 69 28 357 133 126 128 13 31 201 195 267 181 206 60 105 161 171 172 189 195 214 265 76 64 26 56 60 52
306 309 315 179 173 170 169 175 171 170 166 151 113 100 118 73 91 93 70 52 45 26 3 46 82 36 50 109 262 244 251 103 247 174 354 230 158 202 212 181 102 63 105 83 59 47 10